Showing default

CYGFM02, 41886

Orbit data source: Space-Track

CYGFM02, 41886 is an American payload satellite in LEO that was launched on Thu, 15 Dec 2016 UTC via a PEGASUS XL launch vehicle from the Pegasus Launch, Eastern Range Air Space (ERAS). Payload-class satellites include a variety of spacecraft equipped with specific instruments for various scientific and technological missions. These include communications satellites like Starlink; space stations such as the ISS; scientific satellites like the Hubble; Earth observation satellites from companies like Planet Labs, Umbra, and HawkEye 360; GPS; miniature CubeSats for education and research; and military/defense satellites.

Loading next visibility...
Identifier
41886, 2016-078C
Orbit
LEO
Country
Flag of USUS
Related business
Manufacturer
SST-US
Mission
Extended mission Civil Science
Bus & Motor
CYGNSS, Unknown motor
Mass
29 kg wet, 29 kg dry
Launch date (UTC)
2016-12-15 (9 years ago)
Launch vehicle
PEGASUS XL
Launch site
Pegasus Launch, Eastern Range Air Space (ERAS)
Object type
Payload
Rocket body
Debris
Shape & HBR
Half Hex Cyl + 2 Pan, 0.8 m
Radar Cross Section
0.450 m², Medium (>0.1 m² and < 1m²)

Expand to show TLE details & history
Last TLE update: 18 hours ago

TLE from 18 hours ago
0 CYGFM02
1 41886U 16078C   25260.21074105  .00043637  00000-0  84890-3 0  9999
2 41886  34.9430 226.8535 0008474 127.6073 232.5418 15.46483532486646
Epoch: 2025-09-17T05:03Z
TLE epoch observation values (Epoch: 2025-09-17T05:03:28.026Z)
Latitude
-0.00004°
Longitude
154.59672°
Altitude
429.422 km
Speed
7.654 km/s
True Right ascension
15h 07m 24s
True Declination
0° 00' 00"
Sunlit
Object was in daylight at epoch
Visualization orbit readout
Latitude
Unknown
Longitude
Unknown
Altitude
Unknown
Speed
Unknown
Apparent Right ascension
Unknown
Apparent Declination
Unknown
Sunlit
N/A
Visualization observer readout
Local Sidereal Time
15:41:15
Azimuth
Unknown
Elevation
Unknown
Doppler factor
Unknown
Orbital elements
Apogee altitude
436.084 km
Perigee altitude
424.546 km
Semi-major axis
6,808.452 km
Eccentricity
0.00085
Inclination
34.943°
RAAN
226.8535°
Arg. of periapsis
127.6073°
True anomaly
232.46477°
Mean anomaly
232.5418°
Eccentric anomaly
232.50328°
Mean motion
3.86341 °/min
Orbital period
93.18 mins
BSTAR
0.0008489
Loading maneuver chart data...
Computing Atmospheric mass density...
Loading historical data...
Loading historical data...
Loading historical data...
Loading historical data...
Loading historical data...
Loading historical data...
Loading historical data...

Documentation

Showing up to 5 results
|